| time (UTC) | temp F | wind direction | speed MPH | gust MPH | rain 1hr in | rain 24hr in | rain mn in | humidity % | barometer mb |
| 20260904182028 | 62 | 208 | 3.0 | 5.0 | 0.00 | 0.07 | 0.00 | 86 | 1014.0 |
| 20260904181549 | 61 | 309 | 3.0 | 4.0 | 0.00 | 0.07 | 0.00 | 87 | 1013.9 |
| 20260904181026 | 60 | 244 | 2.0 | 4.0 | 0.00 | 0.07 | 0.00 | 89 | 1013.9 |
| 20260904180527 | 60 | 328 | 2.0 | 4.0 | 0.00 | 0.07 | 0.00 | 89 | 1014.0 |
| 20260904180054 | 60 | 273 | 1.0 | 4.0 | 0.00 | 0.07 | 0.00 | 91 | 1013.9 |
| 20260904175525 | 59 | 315 | 1.0 | 4.0 | 0.00 | 0.07 | 0.00 | 91 | 1014.0 |
| 20260904175024 | 59 | 309 | 1.0 | 5.0 | 0.00 | 0.07 | 0.00 | 93 | 1014.0 |
| 20260904174551 | 59 | 296 | 2.0 | 5.0 | 0.00 | 0.07 | 0.00 | 94 | 1014.0 |
| 20260904174027 | 58 | 300 | 2.0 | 4.0 | 0.00 | 0.07 | 0.00 | 95 | 1014.0 |
| 20260904173523 | 58 | 307 | 1.0 | 3.0 | 0.00 | 0.07 | 0.00 | 95 | 1014.0 |
| 20260904173047 | 57 | 314 | 2.0 | 4.0 | 0.00 | 0.07 | 0.00 | 95 | 1014.0 |
| 20260904172525 | 57 | 299 | 1.0 | 4.0 | 0.00 | 0.07 | 0.00 | 96 | 1014.0 |
| 20260904172026 | 57 | 292 | 2.0 | 4.0 | 0.00 | 0.07 | 0.00 | 96 | 1014.0 |
| 20260904171559 | 57 | 338 | 1.0 | 3.0 | 0.00 | 0.07 | 0.00 | 97 | 1013.9 |
| 20260904171027 | 56 | 334 | 1.0 | 3.0 | 0.00 | 0.07 | 0.00 | 97 | 1013.9 |
| 20260904170527 | 56 | 300 | 1.0 | 3.0 | 0.00 | 0.07 | 0.00 | 98 | 1013.9 |
| 20260904170054 | 56 | 0 | 0.0 | 2.0 | 0.00 | 0.07 | 0.00 | 98 | 1013.9 |
| 20260904165528 | 56 | 37 | 0.0 | 1.0 | 0.00 | 0.07 | 0.00 | 98 | 1013.8 |
| 20260904165024 | 55 | 36 | 0.0 | 1.0 | 0.00 | 0.07 | 0.00 | 98 | 1013.9 |
| 20260904164557 | 55 | 0 | 0.0 | 2.0 | 0.00 | 0.07 | 0.00 | 98 | 1014.0 |
| 20260904164026 | 55 | 0 | 0.0 | 3.0 | 0.00 | 0.07 | 0.00 | 99 | 1013.8 |
| 20260904163531 | 55 | 329 | 1.0 | 3.0 | 0.00 | 0.07 | 0.00 | 98 | 1013.8 |
| 20260904163046 | 54 | 350 | 1.0 | 3.0 | 0.00 | 0.07 | 0.00 | 98 | 1013.8 |
| 20260904162527 | 54 | 12 | 1.0 | 3.0 | 0.00 | 0.07 | 0.00 | 98 | 1013.8 |
| 20260904162023 | 54 | 12 | 1.0 | 2.0 | 0.00 | 0.07 | 0.00 | 98 | 1013.8 |
| 20260904161551 | 53 | 17 | 1.0 | 3.0 | 0.00 | 0.07 | 0.00 | 98 | 1013.8 |
| 20260904161028 | 53 | 351 | 0.0 | 3.0 | 0.00 | 0.07 | 0.00 | 99 | 1013.8 |
| 20260904160523 | 53 | 355 | 2.0 | 3.0 | 0.00 | 0.07 | 0.00 | 99 | 1013.7 |
| 20260904160054 | 53 | 41 | 1.0 | 3.0 | 0.00 | 0.07 | 0.00 | 99 | 1013.8 |
| 20260904155524 | 52 | 229 | 0.0 | 1.0 | 0.00 | 0.08 | 0.00 | 99 | 1013.8 |
| 20260904155023 | 52 | 0 | 0.0 | 1.0 | 0.00 | 0.08 | 0.00 | 98 | 1013.7 |
| 20260904154549 | 51 | 215 | 0.0 | 1.0 | 0.00 | 0.08 | 0.00 | 98 | 1013.7 |
| 20260904154025 | 51 | 0 | 0.0 | 1.0 | 0.00 | 0.08 | 0.00 | 98 | 1013.7 |
| 20260904153529 | 51 | 0 | 0.0 | 0.0 | 0.00 | 0.08 | 0.00 | 98 | 1013.7 |
| 20260904153047 | 51 | 0 | 0.0 | 1.0 | 0.00 | 0.08 | 0.00 | 98 | 1013.7 |
| 20260904152530 | 51 | 0 | 0.0 | 1.0 | 0.00 | 0.08 | 0.00 | 98 | 1013.6 |
| 20260904152028 | 50 | 0 | 0.0 | 1.0 | 0.00 | 0.08 | 0.00 | 98 | 1013.7 |
| 20260904151551 | 50 | 0 | 0.0 | 1.0 | 0.00 | 0.08 | 0.00 | 98 | 1013.7 |
| 20260904151024 | 50 | 0 | 0.0 | 1.0 | 0.00 | 0.08 | 0.00 | 98 | 1013.6 |
| 20260904150524 | 49 | 0 | 0.0 | 1.0 | 0.00 | 0.08 | 0.00 | 98 | 1013.5 |
| 20260904150049 | 49 | 215 | 0.0 | 1.0 | 0.00 | 0.08 | 0.00 | 98 | 1013.4 |
| 20260904145527 | 49 | 219 | 0.0 | 3.0 | 0.00 | 0.11 | 0.00 | 98 | 1013.3 |
| 20260904145024 | 49 | 150 | 0.0 | 3.0 | 0.00 | 0.11 | 0.00 | 98 | 1013.5 |
| 20260904144549 | 49 | 213 | 1.0 | 3.0 | 0.00 | 0.11 | 0.00 | 98 | 1013.4 |
| 20260904144024 | 49 | 178 | 0.0 | 2.0 | 0.00 | 0.11 | 0.00 | 98 | 1013.3 |
| 20260904143528 | 49 | 147 | 1.0 | 3.0 | 0.00 | 0.11 | 0.00 | 98 | 1013.3 |
| 20260904143048 | 49 | 191 | 1.0 | 3.0 | 0.00 | 0.11 | 0.00 | 98 | 1013.1 |
| 20260904142524 | 49 | 175 | 1.0 | 4.0 | 0.00 | 0.11 | 0.00 | 98 | 1012.9 |
| 20260904142029 | 49 | 161 | 2.0 | 4.0 | 0.00 | 0.11 | 0.00 | 98 | 1012.9 |
| 20260904141555 | 49 | 192 | 0.0 | 2.0 | 0.00 | 0.11 | 0.00 | 98 | 1012.8 |
| 20260904141024 | 49 | 0 | 0.0 | 2.0 | 0.00 | 0.11 | 0.00 | 98 | 1012.8 |
| 20260904140524 | 49 | 0 | 0.0 | 2.0 | 0.00 | 0.11 | 0.00 | 98 | 1012.7 |
| 20260904135527 | 48 | 130 | 0.0 | 1.0 | 0.00 | 0.16 | 0.00 | 98 | 1012.5 |
| 20260904135024 | 48 | 0 | 0.0 | 0.0 | 0.00 | 0.16 | 0.00 | 98 | 1012.4 |
| 20260904134554 | 48 | 0 | 0.0 | 1.0 | 0.00 | 0.16 | 0.00 | 98 | 1012.3 |
| 20260904134028 | 48 | 0 | 0.0 | 2.0 | 0.00 | 0.16 | 0.00 | 98 | 1012.3 |
| 20260904133524 | 48 | 150 | 1.0 | 3.0 | 0.00 | 0.16 | 0.00 | 98 | 1012.3 |
| 20260904133047 | 48 | 161 | 1.0 | 3.0 | 0.00 | 0.16 | 0.00 | 98 | 1012.3 |
| 20260904132531 | 48 | 152 | 1.0 | 2.0 | 0.00 | 0.16 | 0.00 | 98 | 1012.3 |
| 20260904132025 | 48 | 154 | 1.0 | 2.0 | 0.00 | 0.16 | 0.00 | 98 | 1012.4 |
| 20260904131553 | 48 | 141 | 0.0 | 1.0 | 0.00 | 0.16 | 0.00 | 98 | 1012.2 |
| 20260904131024 | 48 | 141 | 1.0 | 1.0 | 0.00 | 0.16 | 0.00 | 98 | 1012.3 |
| 20260904130524 | 48 | 141 | 0.0 | 1.0 | 0.00 | 0.16 | 0.00 | 98 | 1012.3 |
| 20260904130053 | 48 | 141 | 0.0 | 1.0 | 0.00 | 0.16 | 0.00 | 98 | 1012.3 |
| 20260904125524 | 48 | 141 | 0.0 | 1.0 | 0.00 | 0.21 | 0.00 | 98 | 1012.2 |
| 20260904125024 | 48 | 115 | 1.0 | 1.0 | 0.00 | 0.21 | 0.00 | 98 | 1012.3 |
| 20260904124550 | 48 | 115 | 0.0 | 1.0 | 0.00 | 0.21 | 0.00 | 98 | 1012.2 |
| 20260904124026 | 48 | 0 | 0.0 | 0.0 | 0.00 | 0.21 | 0.00 | 98 | 1012.1 |
| 20260904123523 | 48 | 0 | 0.0 | 0.0 | 0.00 | 0.21 | 0.00 | 98 | 1012.2 |
| 20260904123050 | 48 | 0 | 0.0 | 1.0 | 0.00 | 0.21 | 0.00 | 98 | 1012.1 |
| 20260904122526 | 48 | 0 | 0.0 | 1.0 | 0.00 | 0.21 | 0.00 | 98 | 1012.1 |
| 20260904122030 | 48 | 115 | 0.0 | 1.0 | 0.00 | 0.21 | 0.00 | 98 | 1012.2 |
| 20260904121548 | 48 | 146 | 1.0 | 1.0 | 0.00 | 0.21 | 0.00 | 98 | 1012.2 |
| 20260904121028 | 49 | 146 | 1.0 | 1.0 | 0.00 | 0.21 | 0.00 | 98 | 1012.1 |
| 20260904120525 | 49 | 146 | 1.0 | 1.0 | 0.00 | 0.21 | 0.00 | 98 | 1012.1 |
| 20260904120054 | 49 | 153 | 0.0 | 0.0 | 0.00 | 0.21 | 0.00 | 97 | 1012.1 |
| 20260904115524 | 49 | 153 | 0.0 | 0.0 | 0.00 | 0.27 | 0.00 | 98 | 1012.1 |
| 20260904115024 | 49 | 153 | 0.0 | 0.0 | 0.00 | 0.27 | 0.00 | 98 | 1012.0 |
| 20260904114554 | 49 | 0 | 0.0 | 0.0 | 0.00 | 0.27 | 0.00 | 98 | 1012.0 |
| 20260904114028 | 49 | 0 | 0.0 | 0.0 | 0.00 | 0.27 | 0.00 | 98 | 1011.7 |
| 20260904113526 | 49 | 0 | 0.0 | 0.0 | 0.00 | 0.27 | 0.00 | 98 | 1011.9 |
| 20260904113053 | 49 | 0 | 0.0 | 0.0 | 0.00 | 0.27 | 0.00 | 98 | 1011.9 |
| 20260904112527 | 49 | 0 | 0.0 | 0.0 | 0.00 | 0.27 | 0.00 | 98 | 1011.9 |
| 20260904112025 | 49 | 0 | 0.0 | 0.0 | 0.00 | 0.27 | 0.00 | 98 | 1011.9 |
| 20260904111551 | 49 | 0 | 0.0 | 0.0 | 0.00 | 0.27 | 0.00 | 98 | 1011.8 |
| 20260904111023 | 49 | 0 | 0.0 | 0.0 | 0.00 | 0.27 | 0.00 | 98 | 1011.7 |
| 20260904110527 | 49 | 0 | 0.0 | 0.0 | 0.00 | 0.27 | 0.00 | 98 | 1011.6 |
| 20260904110047 | 49 | 153 | 0.0 | 2.0 | 0.00 | 0.27 | 0.00 | 97 | 1011.5 |
| 20260904105526 | 49 | 153 | 1.0 | 2.0 | 0.00 | 0.33 | 0.00 | 97 | 1011.6 |
| 20260904105026 | 49 | 153 | 0.0 | 2.0 | 0.00 | 0.33 | 0.00 | 98 | 1011.5 |
| 20260904104546 | 49 | 0 | 0.0 | 0.0 | 0.00 | 0.33 | 0.00 | 98 | 1011.5 |
| 20260904104030 | 49 | 0 | 0.0 | 1.0 | 0.00 | 0.33 | 0.00 | 98 | 1011.5 |
| 20260904103529 | 49 | 0 | 0.0 | 1.0 | 0.00 | 0.33 | 0.00 | 98 | 1011.4 |
| 20260904103050 | 49 | 0 | 0.0 | 1.0 | 0.00 | 0.33 | 0.00 | 98 | 1011.3 |
| 20260904102526 | 49 | 0 | 0.0 | 0.0 | 0.00 | 0.33 | 0.00 | 98 | 1011.3 |
| 20260904102024 | 49 | 0 | 0.0 | 0.0 | 0.00 | 0.33 | 0.00 | 98 | 1011.2 |
| 20260904101550 | 49 | 0 | 0.0 | 0.0 | 0.00 | 0.33 | 0.00 | 98 | 1011.3 |
| 20260904101026 | 49 | 0 | 0.0 | 1.0 | 0.00 | 0.33 | 0.00 | 97 | 1011.2 |
| 20260904100525 | 49 | 0 | 0.0 | 1.0 | 0.00 | 0.33 | 0.00 | 97 | 1011.1 |
| 20260904100045 | 50 | 126 | 0.0 | 1.0 | 0.00 | 0.33 | 0.00 | 98 | 1011.2 |
| 20260904095524 | 50 | 136 | 0.0 | 1.0 | 0.00 | 0.34 | 0.00 | 98 | 1011.2 |
| 20260904095028 | 50 | 142 | 0.0 | 1.0 | 0.00 | 0.34 | 0.00 | 98 | 1011.2 |
| 20260904094553 | 50 | 137 | 0.0 | 1.0 | 0.00 | 0.34 | 0.00 | 98 | 1011.3 |
| 20260904094026 | 50 | 137 | 0.0 | 0.0 | 0.00 | 0.34 | 0.00 | 97 | 1011.2 |
| 20260904093526 | 50 | 137 | 0.0 | 0.0 | 0.00 | 0.34 | 0.00 | 97 | 1011.3 |
| 20260904093053 | 50 | 0 | 0.0 | 1.0 | 0.00 | 0.34 | 0.00 | 98 | 1011.3 |
| 20260904092526 | 50 | 0 | 0.0 | 1.0 | 0.00 | 0.34 | 0.00 | 98 | 1011.3 |
| 20260904092024 | 50 | 137 | 1.0 | 1.0 | 0.00 | 0.34 | 0.00 | 97 | 1011.3 |
| 20260904091547 | 50 | 96 | 1.0 | 1.0 | 0.00 | 0.34 | 0.00 | 98 | 1011.3 |
| 20260904091026 | 50 | 96 | 0.0 | 1.0 | 0.00 | 0.34 | 0.00 | 98 | 1011.4 |
| 20260904090525 | 50 | 0 | 0.0 | 0.0 | 0.00 | 0.34 | 0.00 | 97 | 1011.4 |
| 20260904090043 | 50 | 0 | 0.0 | 0.0 | 0.00 | 0.34 | 0.00 | 97 | 1011.5 |
| 20260904085527 | 50 | 0 | 0.0 | 0.0 | 0.00 | 0.34 | 0.00 | 97 | 1011.4 |
| 20260904085026 | 50 | 0 | 0.0 | 0.0 | 0.00 | 0.34 | 0.00 | 97 | 1011.4 |
| 20260904084553 | 50 | 0 | 0.0 | 0.0 | 0.00 | 0.34 | 0.00 | 97 | 1011.4 |
| 20260904084028 | 50 | 0 | 0.0 | 0.0 | 0.00 | 0.34 | 0.00 | 97 | 1011.5 |
| 20260904083528 | 50 | 0 | 0.0 | 0.0 | 0.00 | 0.34 | 0.00 | 97 | 1011.4 |
| 20260904083047 | 50 | 0 | 0.0 | 0.0 | 0.00 | 0.34 | 0.00 | 97 | 1011.4 |
| 20260904082527 | 50 | 0 | 0.0 | 0.0 | 0.00 | 0.34 | 0.00 | 97 | 1011.4 |
| 20260904082028 | 50 | 0 | 0.0 | 0.0 | 0.00 | 0.34 | 0.00 | 97 | 1011.4 |
| 20260904081544 | 50 | 0 | 0.0 | 0.0 | 0.00 | 0.34 | 0.00 | 97 | 1011.4 |
| 20260904081027 | 50 | 0 | 0.0 | 0.0 | 0.00 | 0.34 | 0.00 | 97 | 1011.4 |
| 20260904080528 | 50 | 0 | 0.0 | 1.0 | 0.00 | 0.34 | 0.00 | 97 | 1011.4 |
| 20260904080052 | 50 | 0 | 0.0 | 1.0 | 0.00 | 0.34 | 0.00 | 97 | 1011.4 |
| 20260904075526 | 50 | 0 | 0.0 | 1.0 | 0.00 | 0.35 | 0.00 | 97 | 1011.4 |
| 20260904075028 | 50 | 0 | 0.0 | 0.0 | 0.00 | 0.35 | 0.00 | 97 | 1011.3 |
| 20260904074554 | 50 | 0 | 0.0 | 0.0 | 0.00 | 0.35 | 0.00 | 97 | 1011.3 |
| 20260904074028 | 50 | 0 | 0.0 | 0.0 | 0.00 | 0.35 | 0.00 | 97 | 1011.3 |
| 20260904073528 | 50 | 0 | 0.0 | 0.0 | 0.00 | 0.35 | 0.00 | 97 | 1011.3 |
| 20260904073052 | 50 | 0 | 0.0 | 0.0 | 0.00 | 0.35 | 0.00 | 97 | 1011.3 |
| 20260904072528 | 50 | 0 | 0.0 | 0.0 | 0.00 | 0.35 | 0.00 | 97 | 1011.3 |
| 20260904072026 | 50 | 0 | 0.0 | 0.0 | 0.00 | 0.35 | 0.00 | 97 | 1011.3 |
| 20260904071553 | 50 | 0 | 0.0 | 0.0 | 0.00 | 0.35 | 0.00 | 97 | 1011.3 |
| 20260904071027 | 50 | 0 | 0.0 | 1.0 | 0.00 | 0.35 | 0.00 | 97 | 1011.3 |
| 20260904070527 | 50 | 0 | 0.0 | 1.0 | 0.00 | 0.35 | 0.00 | 97 | 1011.2 |
| 20260904070052 | 50 | 0 | 0.0 | 0.0 | 0.00 | 0.35 | 0.00 | 97 | 1011.3 |
| 20260904065527 | 50 | 0 | 0.0 | 1.0 | 0.00 | 0.36 | 0.35 | 97 | 1011.3 |
| 20260904065024 | 50 | 0 | 0.0 | 1.0 | 0.00 | 0.36 | 0.35 | 97 | 1011.2 |
| 20260904064550 | 50 | 0 | 0.0 | 0.0 | 0.00 | 0.36 | 0.35 | 97 | 1011.3 |
| 20260904064027 | 50 | 0 | 0.0 | 1.0 | 0.00 | 0.36 | 0.35 | 97 | 1011.1 |
| 20260904063525 | 51 | 0 | 0.0 | 1.0 | 0.00 | 0.36 | 0.35 | 97 | 1011.2 |
| 20260904063055 | 51 | 0 | 0.0 | 1.0 | 0.00 | 0.36 | 0.35 | 97 | 1011.2 |
| 20260904062528 | 51 | 96 | 0.0 | 1.0 | 0.00 | 0.36 | 0.35 | 97 | 1011.3 |
| 20260904062027 | 51 | 0 | 0.0 | 1.0 | 0.00 | 0.36 | 0.35 | 97 | 1011.1 |
| 20260904061551 | 51 | 96 | 0.0 | 1.0 | 0.00 | 0.36 | 0.35 | 97 | 1011.3 |
| 20260904061028 | 51 | 0 | 0.0 | 1.0 | 0.00 | 0.36 | 0.35 | 97 | 1011.2 |
| 20260904060528 | 51 | 0 | 0.0 | 1.0 | 0.00 | 0.36 | 0.35 | 97 | 1011.2 |
| 20260904060050 | 51 | 0 | 0.0 | 0.0 | 0.00 | 0.36 | 0.35 | 97 | 1011.2 |
| 20260904055523 | 51 | 0 | 0.0 | 0.0 | 0.00 | 0.36 | 0.35 | 96 | 1011.2 |
| 20260904055027 | 51 | 0 | 0.0 | 0.0 | 0.00 | 0.36 | 0.35 | 96 | 1011.2 |
| 20260904054547 | 51 | 0 | 0.0 | 0.0 | 0.00 | 0.36 | 0.35 | 96 | 1011.2 |
| 20260904054028 | 51 | 0 | 0.0 | 0.0 | 0.00 | 0.36 | 0.35 | 96 | 1011.1 |
| 20260904053527 | 51 | 0 | 0.0 | 1.0 | 0.00 | 0.36 | 0.35 | 96 | 1011.1 |
| 20260904053043 | 51 | 0 | 0.0 | 1.0 | 0.00 | 0.36 | 0.35 | 96 | 1011.2 |
| 20260904052528 | 51 | 81 | 0.0 | 2.0 | 0.00 | 0.36 | 0.35 | 96 | 1011.1 |
| 20260904052027 | 51 | 290 | 0.0 | 2.0 | 0.00 | 0.36 | 0.35 | 96 | 1011.2 |
| 20260904051602 | 52 | 292 | 0.0 | 2.0 | 0.00 | 0.36 | 0.35 | 96 | 1011.1 |
| 20260904051026 | 52 | 0 | 0.0 | 1.0 | 0.00 | 0.36 | 0.35 | 96 | 1011.2 |
| 20260904050524 | 52 | 35 | 0.0 | 1.0 | 0.00 | 0.36 | 0.35 | 96 | 1011.1 |
| 20260904050050 | 52 | 0 | 0.0 | 1.0 | 0.00 | 0.36 | 0.35 | 96 | 1011.2 |
| 20260904045524 | 52 | 0 | 0.0 | 1.0 | 0.00 | 0.36 | 0.35 | 96 | 1011.3 |
| 20260904045024 | 52 | 0 | 0.0 | 1.0 | 0.00 | 0.36 | 0.35 | 96 | 1011.2 |
| 20260904044547 | 52 | 0 | 0.0 | 1.0 | 0.00 | 0.36 | 0.35 | 96 | 1011.1 |
| 20260904044027 | 52 | 0 | 0.0 | 2.0 | 0.00 | 0.36 | 0.35 | 96 | 1011.2 |
| 20260904043525 | 52 | 0 | 0.0 | 2.0 | 0.00 | 0.36 | 0.35 | 96 | 1011.2 |
| 20260904043047 | 52 | 325 | 1.0 | 2.0 | 0.00 | 0.36 | 0.35 | 96 | 1011.3 |
| 20260904042528 | 52 | 38 | 0.0 | 1.0 | 0.00 | 0.36 | 0.35 | 95 | 1011.3 |
| 20260904042031 | 53 | 101 | 0.0 | 1.0 | 0.00 | 0.36 | 0.35 | 95 | 1011.2 |
| 20260904041546 | 53 | 0 | 0.0 | 1.0 | 0.00 | 0.36 | 0.35 | 95 | 1011.3 |
| 20260904041027 | 53 | 102 | 1.0 | 1.0 | 0.00 | 0.36 | 0.35 | 95 | 1011.2 |
| 20260904040525 | 53 | 82 | 0.0 | 1.0 | 0.00 | 0.36 | 0.35 | 95 | 1011.1 |
| 20260904040049 | 53 | 0 | 0.0 | 1.0 | 0.00 | 0.36 | 0.35 | 95 | 1011.1 |
| 20260904035527 | 53 | 0 | 0.0 | 1.0 | 0.00 | 0.36 | 0.35 | 94 | 1011.1 |
| 20260904035028 | 53 | 0 | 0.0 | 1.0 | 0.00 | 0.36 | 0.35 | 94 | 1011.2 |
| 20260904034550 | 54 | 0 | 0.0 | 1.0 | 0.00 | 0.36 | 0.35 | 94 | 1011.0 |
| 20260904034027 | 54 | 57 | 0.0 | 1.0 | 0.00 | 0.36 | 0.35 | 94 | 1011.0 |
| 20260904033525 | 54 | 0 | 0.0 | 0.0 | 0.00 | 0.36 | 0.35 | 94 | 1010.8 |
| 20260904033050 | 54 | 0 | 0.0 | 0.0 | 0.00 | 0.36 | 0.35 | 94 | 1010.8 |
| 20260904032525 | 54 | 0 | 0.0 | 0.0 | 0.00 | 0.36 | 0.35 | 93 | 1010.8 |
| 20260904032026 | 54 | 0 | 0.0 | 1.0 | 0.00 | 0.36 | 0.35 | 93 | 1010.7 |
| 20260904031550 | 55 | 0 | 0.0 | 1.0 | 0.00 | 0.36 | 0.35 | 92 | 1010.6 |
| 20260904031025 | 55 | 0 | 0.0 | 1.0 | 0.00 | 0.36 | 0.35 | 92 | 1010.5 |
| 20260904030529 | 55 | 0 | 0.0 | 1.0 | 0.00 | 0.36 | 0.35 | 92 | 1010.4 |
| 20260904030053 | 55 | 0 | 0.0 | 1.0 | 0.00 | 0.36 | 0.35 | 92 | 1010.4 |
| 20260904025527 | 56 | 57 | 0.0 | 1.0 | 0.00 | 0.36 | 0.35 | 91 | 1010.5 |
| 20260904025027 | 56 | 0 | 0.0 | 0.0 | 0.00 | 0.36 | 0.35 | 91 | 1010.5 |
| 20260904024553 | 56 | 0 | 0.0 | 1.0 | 0.00 | 0.36 | 0.35 | 90 | 1010.5 |
| 20260904024023 | 56 | 0 | 0.0 | 1.0 | 0.00 | 0.36 | 0.35 | 89 | 1010.5 |
| 20260904023527 | 56 | 0 | 0.0 | 1.0 | 0.00 | 0.36 | 0.35 | 89 | 1010.5 |
| 20260904023049 | 57 | 0 | 0.0 | 2.0 | 0.00 | 0.36 | 0.35 | 87 | 1010.4 |
| 20260904022525 | 57 | 0 | 0.0 | 2.0 | 0.00 | 0.36 | 0.35 | 86 | 1010.4 |
| 20260904022028 | 58 | 0 | 0.0 | 1.0 | 0.00 | 0.36 | 0.35 | 85 | 1010.5 |
| 20260904021547 | 58 | 84 | 0.0 | 2.0 | 0.00 | 0.36 | 0.35 | 84 | 1010.4 |
| 20260904021028 | 59 | 0 | 1.0 | 2.0 | 0.00 | 0.36 | 0.35 | 82 | 1010.4 |
| 20260904020528 | 59 | 0 | 0.0 | 2.0 | 0.00 | 0.36 | 0.35 | 82 | 1010.5 |
| 20260904020055 | 59 | 121 | 0.0 | 8.0 | 0.00 | 0.36 | 0.35 | 81 | 1010.4 |
| 20260904015527 | 59 | 138 | 2.0 | 8.0 | 0.00 | 0.36 | 0.35 | 81 | 1010.4 |
| 20260904015029 | 59 | 86 | 3.0 | 8.0 | 0.00 | 0.36 | 0.35 | 81 | 1010.3 |
| 20260904014604 | 60 | 118 | 3.0 | 9.0 | 0.00 | 0.36 | 0.35 | 80 | 1010.2 |
| 20260904014023 | 60 | 160 | 5.0 | 9.0 | 0.00 | 0.36 | 0.35 | 79 | 1010.1 |
| 20260904013524 | 61 | 149 | 5.0 | 9.0 | 0.00 | 0.36 | 0.35 | 78 | 1010.1 |
| 20260904013048 | 61 | 180 | 4.0 | 13.0 | 0.00 | 0.36 | 0.35 | 79 | 1010.1 |
| 20260904012529 | 61 | 127 | 9.0 | 13.0 | 0.00 | 0.36 | 0.35 | 77 | 1010.0 |
| 20260904012025 | 61 | 167 | 8.0 | 13.0 | 0.00 | 0.36 | 0.35 | 77 | 1009.9 |
| 20260904011545 | 62 | 158 | 6.0 | 13.0 | 0.00 | 0.36 | 0.35 | 78 | 1010.1 |
| 20260904011030 | 61 | 209 | 3.0 | 8.0 | 0.00 | 0.36 | 0.35 | 81 | 1010.1 |
| 20260904010527 | 61 | 133 | 2.0 | 9.0 | 0.00 | 0.36 | 0.35 | 83 | 1010.0 |
| 20260904010104 | 60 | 109 | 4.0 | 12.0 | 0.00 | 0.36 | 0.35 | 84 | 1010.0 |
| 20260904005528 | 60 | 96 | 4.0 | 12.0 | 0.00 | 0.36 | 0.35 | 84 | 1010.1 |
| 20260904005025 | 61 | 100 | 7.0 | 12.0 | 0.00 | 0.36 | 0.35 | 82 | 1010.1 |
| 20260904004545 | 61 | 113 | 7.0 | 12.0 | 0.00 | 0.36 | 0.35 | 83 | 1010.1 |
| 20260904004027 | 62 | 156 | 8.0 | 12.0 | 0.00 | 0.36 | 0.35 | 83 | 1010.0 |
| 20260904003526 | 62 | 105 | 4.0 | 9.0 | 0.00 | 0.36 | 0.35 | 85 | 1010.1 |
| 20260904003050 | 61 | 111 | 5.0 | 11.0 | 0.00 | 0.36 | 0.35 | 85 | 1010.1 |
| 20260904002528 | 61 | 137 | 5.0 | 11.0 | 0.00 | 0.36 | 0.35 | 86 | 1010.2 |
| 20260904002024 | 60 | 119 | 4.0 | 12.0 | 0.00 | 0.36 | 0.35 | 85 | 1010.1 |
| 20260904001550 | 60 | 113 | 7.0 | 12.0 | 0.00 | 0.36 | 0.35 | 86 | 1010.3 |
| 20260904001023 | 60 | 106 | 4.0 | 11.0 | 0.00 | 0.36 | 0.35 | 86 | 1010.3 |
| 20260904000531 | 60 | 163 | 5.0 | 11.0 | 0.00 | 0.36 | 0.35 | 85 | 1010.4 |
| 20260904000058 | 60 | 103 | 5.0 | 11.0 | 0.00 | 0.36 | 0.35 | 85 | 1010.3 |
| 20260903235528 | 60 | 132 | 5.0 | 9.0 | 0.00 | 0.36 | 0.35 | 84 | 1010.5 |
| 20260903235026 | 60 | 138 | 4.0 | 7.0 | 0.00 | 0.36 | 0.35 | 84 | 1010.4 |
| 20260903234551 | 60 | 117 | 3.0 | 7.0 | 0.00 | 0.36 | 0.35 | 85 | 1010.4 |
| 20260903234027 | 60 | 165 | 1.0 | 7.0 | 0.00 | 0.36 | 0.35 | 85 | 1010.4 |
| 20260903233524 | 60 | 124 | 1.0 | 7.0 | 0.00 | 0.36 | 0.35 | 86 | 1010.4 |
| 20260903233059 | 60 | 188 | 4.0 | 8.0 | 0.00 | 0.36 | 0.35 | 85 | 1010.4 |
| 20260903232525 | 60 | 122 | 3.0 | 9.0 | 0.00 | 0.36 | 0.35 | 85 | 1010.4 |
| 20260903232028 | 60 | 165 | 4.0 | 13.0 | 0.00 | 0.36 | 0.35 | 86 | 1010.4 |
| 20260903231547 | 60 | 110 | 7.0 | 13.0 | 0.00 | 0.36 | 0.35 | 85 | 1010.4 |
| 20260903231023 | 60 | 169 | 5.0 | 12.0 | 0.00 | 0.36 | 0.35 | 85 | 1010.4 |
| 20260903230527 | 60 | 105 | 5.0 | 13.0 | 0.00 | 0.36 | 0.35 | 85 | 1010.4 |
| 20260903230051 | 60 | 146 | 7.0 | 13.0 | 0.01 | 0.36 | 0.35 | 85 | 1010.4 |
| 20260903225527 | 60 | 165 | 4.0 | 11.0 | 0.01 | 0.36 | 0.35 | 84 | 1010.4 |
| 20260903225027 | 60 | 123 | 6.0 | 11.0 | 0.02 | 0.36 | 0.35 | 84 | 1010.4 |
| 20260903224549 | 60 | 144 | 5.0 | 9.0 | 0.02 | 0.36 | 0.35 | 86 | 1010.4 |
| 20260903224024 | 60 | 139 | 5.0 | 8.0 | 0.02 | 0.36 | 0.35 | 86 | 1010.3 |
| 20260903223524 | 60 | 136 | 4.0 | 9.0 | 0.02 | 0.36 | 0.35 | 86 | 1010.3 |
| 20260903223048 | 59 | 144 | 5.0 | 11.0 | 0.02 | 0.36 | 0.35 | 86 | 1010.4 |
| 20260903222528 | 59 | 162 | 7.0 | 14.0 | 0.02 | 0.36 | 0.35 | 87 | 1010.4 |
| 20260903222026 | 58 | 161 | 8.0 | 14.0 | 0.02 | 0.36 | 0.35 | 87 | 1010.5 |
| 20260903221553 | 58 | 111 | 7.0 | 12.0 | 0.02 | 0.36 | 0.35 | 88 | 1010.6 |
| 20260903221026 | 58 | 135 | 7.0 | 12.0 | 0.02 | 0.36 | 0.35 | 89 | 1010.6 |
| 20260903220528 | 58 | 123 | 8.0 | 12.0 | 0.02 | 0.36 | 0.35 | 89 | 1010.5 |
| 20260903220053 | 58 | 140 | 4.0 | 10.0 | 0.01 | 0.35 | 0.34 | 91 | 1010.6 |
| 20260903215524 | 59 | 95 | 2.0 | 6.0 | 0.05 | 0.35 | 0.34 | 93 | 1010.6 |
| 20260903215023 | 59 | 71 | 1.0 | 4.0 | 0.04 | 0.34 | 0.33 | 93 | 1010.6 |
| 20260903214551 | 59 | 101 | 2.0 | 4.0 | 0.04 | 0.34 | 0.33 | 92 | 1010.5 |
| 20260903214027 | 59 | 0 | 0.0 | 2.0 | 0.04 | 0.34 | 0.33 | 92 | 1010.4 |
| 20260903213527 | 59 | 89 | 0.0 | 2.0 | 0.04 | 0.34 | 0.33 | 91 | 1010.6 |
| 20260903213045 | 59 | 78 | 0.0 | 4.0 | 0.04 | 0.34 | 0.33 | 90 | 1010.6 |
| 20260903212527 | 60 | 32 | 1.0 | 4.0 | 0.04 | 0.34 | 0.33 | 90 | 1010.5 |
| 20260903212026 | 60 | 9 | 2.0 | 4.0 | 0.04 | 0.34 | 0.33 | 89 | 1010.3 |
| 20260903211556 | 59 | 308 | 0.0 | 2.0 | 0.04 | 0.34 | 0.33 | 90 | 1010.4 |
| 20260903211025 | 59 | 299 | 0.0 | 1.0 | 0.05 | 0.34 | 0.33 | 89 | 1010.3 |
| 20260903210528 | 59 | 0 | 0.0 | 5.0 | 0.05 | 0.34 | 0.33 | 89 | 1010.3 |
| 20260903210106 | 59 | 0 | 1.0 | 5.0 | 0.05 | 0.34 | 0.33 | 87 | 1010.2 |
| 20260903205527 | 59 | 219 | 3.0 | 5.0 | 0.01 | 0.33 | 0.29 | 87 | 1010.3 |
| 20260903205026 | 59 | 223 | 1.0 | 5.0 | 0.01 | 0.33 | 0.29 | 88 | 1010.1 |
| 20260903204613 | 59 | 252 | 2.0 | 6.0 | 0.01 | 0.33 | 0.29 | 86 | 1010.0 |
| 20260903204027 | 59 | 207 | 3.0 | 8.0 | 0.01 | 0.33 | 0.29 | 84 | 1010.1 |
| 20260903203527 | 60 | 172 | 4.0 | 9.0 | 0.01 | 0.33 | 0.29 | 85 | 1010.1 |
| 20260903203051 | 61 | 186 | 5.0 | 9.0 | 0.01 | 0.33 | 0.29 | 86 | 1010.0 |
| 20260903202524 | 60 | 200 | 3.0 | 8.0 | 0.01 | 0.33 | 0.29 | 87 | 1009.9 |
| 20260903202027 | 60 | 201 | 3.0 | 7.0 | 0.01 | 0.33 | 0.29 | 88 | 1010.0 |
| 20260903201551 | 60 | 119 | 4.0 | 7.0 | 0.01 | 0.33 | 0.29 | 88 | 1010.0 |
| 20260903201028 | 60 | 144 | 3.0 | 8.0 | 0.00 | 0.32 | 0.28 | 87 | 1010.0 |
| 20260903200528 | 60 | 106 | 4.0 | 8.0 | 0.00 | 0.32 | 0.28 | 86 | 1010.0 |
| 20260903200052 | 60 | 131 | 4.0 | 8.0 | 0.00 | 0.32 | 0.28 | 87 | 1010.1 |
| 20260903195527 | 60 | 98 | 3.0 | 11.0 | 0.00 | 0.36 | 0.28 | 88 | 1010.1 |
| 20260903195024 | 60 | 120 | 5.0 | 11.0 | 0.00 | 0.36 | 0.28 | 87 | 1010.1 |
| 20260903194543 | 60 | 125 | 6.0 | 12.0 | 0.00 | 0.36 | 0.28 | 88 | 1010.2 |
| 20260903194027 | 60 | 133 | 7.0 | 15.0 | 0.00 | 0.36 | 0.28 | 89 | 1010.1 |
| 20260903193527 | 60 | 147 | 9.0 | 15.0 | 0.00 | 0.36 | 0.28 | 87 | 1010.0 |
| 20260903193053 | 60 | 171 | 7.0 | 14.0 | 0.00 | 0.36 | 0.28 | 89 | 1009.9 |
| 20260903192523 | 60 | 180 | 7.0 | 14.0 | 0.00 | 0.36 | 0.28 | 90 | 1010.1 |
| 20260903192024 | 60 | 157 | 4.0 | 11.0 | 0.00 | 0.36 | 0.28 | 90 | 1010.1 |
| 20260903191548 | 59 | 190 | 6.0 | 11.0 | 0.00 | 0.36 | 0.28 | 91 | 1010.1 |
| 20260903191027 | 59 | 128 | 5.0 | 11.0 | 0.00 | 0.36 | 0.28 | 90 | 1010.0 |
| 20260903190528 | 59 | 134 | 4.0 | 11.0 | 0.00 | 0.36 | 0.28 | 91 | 1010.1 |
| 20260903190047 | 59 | 154 | 4.0 | 13.0 | 0.00 | 0.36 | 0.28 | 93 | 1010.1 |
| 20260903185528 | 59 | 162 | 6.0 | 13.0 | 0.00 | 0.37 | 0.28 | 92 | 1010.1 |
| 20260903185028 | 59 | 126 | 6.0 | 12.0 | 0.00 | 0.37 | 0.28 | 92 | 1010.1 |
| 20260903184552 | 59 | 109 | 4.0 | 10.0 | 0.00 | 0.37 | 0.28 | 93 | 1010.1 |
| 20260903184029 | 58 | 103 | 6.0 | 10.0 | 0.00 | 0.37 | 0.28 | 93 | 1010.1 |
| 20260903183524 | 59 | 163 | 5.0 | 11.0 | 0.00 | 0.37 | 0.28 | 93 | 1010.1 |
| 20260903183050 | 58 | 205 | 4.0 | 15.0 | 0.00 | 0.37 | 0.28 | 93 | 1010.1 |
| 20260903182525 | 58 | 176 | 9.0 | 15.0 | 0.00 | 0.37 | 0.28 | 92 | 1010.1 |